Time,TemperatureF,DewpointF,PressureIn,WindDirection,WindDirectionDegrees,WindSpeedMPH,WindSpeedGustMPH,Humidity,HourlyPrecipIn,Conditions,Clouds,dailyrainin,SolarRadiationWatts/m^2,SoftwareType,DateUTC
2013-05-21 00:00:00,53.8,48.1,29.94,WNW,292,0.0,0.0,81,0.00,CLR,,0.00,0.0,WeatherDisplay:10.37,2013-05-20 22:00:00,
2013-05-21 00:05:00,53.8,48.1,29.97,WNW,292,0.0,0.0,81,0.00,CLR,,0.00,0.0,WeatherDisplay:10.37,2013-05-20 22:05:00,
2013-05-21 00:10:00,54.0,48.3,29.97,WNW,292,0.0,0.0,81,0.00,CLR,,0.00,0.0,WeatherDisplay:10.37,2013-05-20 22:10:00,
2013-05-21 00:15:00,53.8,48.1,29.97,WNW,292,0.0,0.0,81,0.00,CLR,,0.00,0.0,WeatherDisplay:10.37,2013-05-20 22:15:00,
2013-05-21 00:20:00,54.0,48.3,29.94,WNW,292,0.0,0.0,81,0.00,CLR,,0.00,0.0,WeatherDisplay:10.37,2013-05-20 22:20:00,
2013-05-21 00:25:00,53.8,48.1,29.94,WNW,292,0.0,0.0,81,0.00,CLR,,0.00,0.0,WeatherDisplay:10.37,2013-05-20 22:25:00,
2013-05-21 00:30:00,53.8,48.1,29.94,WNW,292,0.0,0.0,81,0.00,CLR,,0.00,0.0,WeatherDisplay:10.37,2013-05-20 22:30:00,
2013-05-21 00:35:00,53.8,48.4,29.97,SSW,202,0.0,0.0,82,0.00,CLR,,0.00,0.0,WeatherDisplay:10.37,2013-05-20 22:35:00,
2013-05-21 00:40:00,53.8,48.4,29.97,SW,225,0.0,0.0,82,0.00,CLR,,0.00,0.0,WeatherDisplay:10.37,2013-05-20 22:40:00,
2013-05-21 00:45:00,53.8,48.1,29.97,SW,225,0.0,0.0,81,0.00,CLR,,0.00,0.0,WeatherDisplay:10.37,2013-05-20 22:45:00,
2013-05-21 00:50:00,53.6,47.9,29.94,WSW,248,0.0,0.0,81,0.00,CLR,,0.00,0.0,WeatherDisplay:10.37,2013-05-20 22:50:00,
2013-05-21 00:55:00,53.6,47.9,29.94,SSW,202,0.0,0.0,81,0.00,CLR,,0.00,0.0,WeatherDisplay:10.37,2013-05-20 22:55:00,
2013-05-21 01:00:00,53.6,47.9,29.94,SSW,202,0.0,0.0,81,0.00,CLR,,0.00,0.0,WeatherDisplay:10.37,2013-05-20 23:00:00,
2013-05-21 01:05:00,53.6,47.9,29.97,SSW,202,1.2,0.0,81,0.00,CLR,,0.00,0.0,WeatherDisplay:10.37,2013-05-20 23:05:00,
2013-05-21 01:10:00,53.6,47.6,29.97,SSW,202,1.2,0.0,80,0.00,CLR,,0.00,0.0,WeatherDisplay:10.37,2013-05-20 23:10:00,
2013-05-21 01:15:00,53.6,47.6,29.97,SSW,202,2.3,0.0,80,0.00,CLR,,0.00,0.0,WeatherDisplay:10.37,2013-05-20 23:15:00,
2013-05-21 01:20:00,53.6,47.6,29.94,SSW,202,1.2,0.0,80,0.00,CLR,,0.00,0.0,WeatherDisplay:10.37,2013-05-20 23:20:00,
2013-05-21 01:25:00,53.6,47.2,29.94,SSW,202,0.0,0.0,79,0.00,CLR,,0.00,0.0,WeatherDisplay:10.37,2013-05-20 23:25:00,
2013-05-21 01:30:00,53.8,47.4,29.94,SSW,202,0.0,0.0,79,0.00,CLR,,0.00,0.0,WeatherDisplay:10.37,2013-05-20 23:30:00,
2013-05-21 01:35:00,53.6,47.2,29.91,SSW,202,0.0,0.0,79,0.00,CLR,,0.00,0.0,WeatherDisplay:10.37,2013-05-20 23:35:00,
2013-05-21 01:40:00,53.6,47.2,29.91,SSW,202,1.2,0.0,79,0.00,CLR,,0.00,0.0,WeatherDisplay:10.37,2013-05-20 23:40:00,
2013-05-21 01:45:00,53.6,47.2,29.91,SSW,202,0.0,0.0,79,0.00,CLR,,0.00,0.0,WeatherDisplay:10.37,2013-05-20 23:45:00,
2013-05-21 01:50:00,53.4,47.4,29.91,SSW,202,0.0,0.0,80,0.00,CLR,,0.00,0.0,WeatherDisplay:10.37,2013-05-20 23:50:00,
2013-05-21 01:55:00,53.4,47.4,29.91,SSW,202,0.0,0.0,80,0.00,CLR,,0.00,0.0,WeatherDisplay:10.37,2013-05-20 23:55:00,
2013-05-21 02:00:00,53.2,47.6,29.91,SSW,202,0.0,0.0,81,0.00,CLR,,0.00,0.0,WeatherDisplay:10.37,2013-05-21 00:00:00,
2013-05-21 02:05:00,53.1,47.4,29.97,SSW,202,0.0,0.0,81,0.00,CLR,,0.00,0.0,WeatherDisplay:10.37,2013-05-21 00:05:00,
2013-05-21 02:10:00,52.9,47.2,29.97,SSW,202,0.0,0.0,81,0.00,CLR,,0.00,0.0,WeatherDisplay:10.37,2013-05-21 00:10:00,
2013-05-21 02:15:00,52.7,47.4,29.97,SSW,202,0.0,0.0,82,0.00,CLR,,0.00,0.0,WeatherDisplay:10.37,2013-05-21 00:15:00,
2013-05-21 02:20:00,52.5,47.2,29.94,SSW,202,0.0,0.0,82,0.00,CLR,,0.00,0.0,WeatherDisplay:10.37,2013-05-21 00:20:00,
2013-05-21 02:25:00,52.3,47.0,29.94,SSW,202,0.0,0.0,82,0.00,CLR,,0.00,0.0,WeatherDisplay:10.37,2013-05-21 00:25:00,
2013-05-21 02:30:00,52.2,46.8,29.94,SSW,202,0.0,0.0,82,0.00,CLR,,0.00,0.0,WeatherDisplay:10.37,2013-05-21 00:30:00,
2013-05-21 02:35:00,52.0,46.7,29.94,SSW,202,0.0,0.0,82,0.00,CLR,,0.00,0.0,WeatherDisplay:10.37,2013-05-21 00:35:00,
2013-05-21 02:40:00,51.8,46.8,29.94,SSW,202,0.0,0.0,83,0.00,CLR,,0.00,0.0,WeatherDisplay:10.37,2013-05-21 00:40:00,
2013-05-21 02:45:00,51.6,46.6,29.94,SSW,202,0.0,0.0,83,0.00,CLR,,0.00,0.0,WeatherDisplay:10.37,2013-05-21 00:45:00,
2013-05-21 02:50:00,51.4,46.4,29.91,WSW,248,0.0,0.0,83,0.00,CLR,,0.00,0.0,WeatherDisplay:10.37,2013-05-21 00:50:00,
2013-05-21 02:55:00,51.3,46.6,29.91,WNW,292,2.3,2.3,84,0.00,CLR,,0.00,0.0,WeatherDisplay:10.37,2013-05-21 00:55:00,
2013-05-21 03:00:00,51.1,46.4,29.91,WSW,248,0.0,0.0,84,0.00,CLR,,0.00,0.0,WeatherDisplay:10.37,2013-05-21 01:00:00,
2013-05-21 03:05:00,50.9,46.2,29.97,WSW,248,0.0,0.0,84,0.00,CLR,,0.00,0.0,WeatherDisplay:10.37,2013-05-21 01:05:00,
2013-05-21 03:10:00,50.7,46.4,29.97,WNW,292,0.0,0.0,85,0.00,CLR,,0.00,0.0,WeatherDisplay:10.37,2013-05-21 01:10:00,
2013-05-21 03:15:00,50.7,46.4,29.97,WNW,292,0.0,0.0,85,0.00,CLR,,0.00,0.0,WeatherDisplay:10.37,2013-05-21 01:15:00,
2013-05-21 03:20:00,50.5,46.2,29.94,WNW,292,0.0,0.0,85,0.00,CLR,,0.00,0.0,WeatherDisplay:10.37,2013-05-21 01:20:00,
2013-05-21 03:25:00,50.5,46.2,29.94,WNW,292,0.0,0.0,85,0.00,CLR,,0.00,0.0,WeatherDisplay:10.37,2013-05-21 01:25:00,
2013-05-21 03:30:00,50.4,46.0,29.94,WNW,292,0.0,0.0,85,0.00,CLR,,0.00,0.0,WeatherDisplay:10.37,2013-05-21 01:30:00,
2013-05-21 03:35:00,50.4,46.3,29.91,WNW,292,0.0,0.0,86,0.00,CLR,,0.00,0.0,WeatherDisplay:10.37,2013-05-21 01:35:00,
2013-05-21 03:40:00,50.4,46.3,29.91,WNW,292,0.0,0.0,86,0.00,CLR,,0.00,0.0,WeatherDisplay:10.37,2013-05-21 01:40:00,
2013-05-21 03:45:00,50.2,46.2,29.91,SW,225,0.0,0.0,86,0.00,CLR,,0.00,0.0,WeatherDisplay:10.37,2013-05-21 01:45:00,
2013-05-21 03:50:00,50.2,46.2,29.91,WSW,248,0.0,0.0,86,0.00,CLR,,0.00,0.0,WeatherDisplay:10.37,2013-05-21 01:50:00,
2013-05-21 03:55:00,50.0,46.0,29.91,WSW,248,0.0,0.0,86,0.00,CLR,,0.00,0.0,WeatherDisplay:10.37,2013-05-21 01:55:00,
2013-05-21 04:00:00,49.8,46.1,29.91,WSW,248,0.0,0.0,87,0.00,CLR,,0.00,0.0,WeatherDisplay:10.37,2013-05-21 02:00:00,
2013-05-21 04:05:00,49.8,46.1,29.91,WSW,248,0.0,0.0,87,0.00,CLR,,0.00,0.0,WeatherDisplay:10.37,2013-05-21 02:05:00,
2013-05-21 04:10:00,49.6,45.9,29.91,WSW,248,0.0,0.0,87,0.00,CLR,,0.00,0.0,WeatherDisplay:10.37,2013-05-21 02:10:00,
2013-05-21 04:15:00,49.6,46.2,29.97,WSW,248,0.0,0.0,88,0.00,CLR,,0.00,0.0,WeatherDisplay:10.37,2013-05-21 02:15:00,
2013-05-21 04:20:00,49.6,46.2,29.97,WSW,248,0.0,0.0,88,0.00,CLR,,0.00,0.0,WeatherDisplay:10.37,2013-05-21 02:20:00,
2013-05-21 04:25:00,49.5,46.1,29.97,SSW,202,0.0,0.0,88,0.00,CLR,,0.00,0.0,WeatherDisplay:10.37,2013-05-21 02:25:00,
2013-05-21 04:30:00,49.3,45.9,29.97,SW,225,0.0,0.0,88,0.00,OVC,,0.00,0.0,WeatherDisplay:10.37,2013-05-21 02:30:00,
2013-05-21 04:35:00,49.3,45.9,29.97,SW,225,0.0,0.0,88,0.00,OVC,,0.00,0.0,WeatherDisplay:10.37,2013-05-21 02:35:00,
2013-05-21 04:40:00,49.1,45.7,29.97,SW,225,0.0,0.0,88,0.00,OVC,,0.00,0.0,WeatherDisplay:10.37,2013-05-21 02:40:00,
2013-05-21 04:45:00,49.1,45.7,29.94,SW,225,0.0,0.0,88,0.00,OVC,,0.00,0.0,WeatherDisplay:10.37,2013-05-21 02:45:00,
2013-05-21 04:50:00,49.1,46.0,29.94,SW,225,0.0,0.0,89,0.00,OVC,,0.00,0.0,WeatherDisplay:10.37,2013-05-21 02:50:00,
2013-05-21 04:55:00,48.9,45.8,29.94,WSW,248,0.0,0.0,89,0.00,OVC,,0.00,0.0,WeatherDisplay:10.37,2013-05-21 02:55:00,
2013-05-21 05:00:00,48.9,45.8,29.94,WSW,248,0.0,0.0,89,0.00,OVC,,0.00,0.0,WeatherDisplay:10.37,2013-05-21 03:00:00,
2013-05-21 05:05:00,48.9,45.8,29.94,WSW,248,0.0,0.0,89,0.00,OVC,,0.00,0.0,WeatherDisplay:10.37,2013-05-21 03:05:00,
2013-05-21 05:10:00,48.9,46.1,29.94,SSW,202,0.0,0.0,90,0.00,OVC,,0.00,0.0,WeatherDisplay:10.37,2013-05-21 03:10:00,
2013-05-21 05:15:00,48.9,46.1,29.94,SSW,202,0.0,0.0,90,0.00,OVC,,0.00,1.8,WeatherDisplay:10.37,2013-05-21 03:15:00,
2013-05-21 05:20:00,48.9,46.1,29.97,SW,225,2.3,2.3,90,0.00,OVC,,0.00,4.0,WeatherDisplay:10.37,2013-05-21 03:20:00,
2013-05-21 05:25:00,48.9,46.4,29.97,South,180,1.2,1.2,91,0.00,OVC,,0.00,6.3,WeatherDisplay:10.37,2013-05-21 03:25:00,
2013-05-21 05:30:00,49.1,46.6,29.94,SSW,202,2.3,2.3,91,0.00,OVC,,0.00,8.6,WeatherDisplay:10.37,2013-05-21 03:30:00,
2013-05-21 05:35:00,49.1,46.6,29.94,SSW,202,1.2,0.0,91,0.00,OVC,,0.00,10.9,WeatherDisplay:10.37,2013-05-21 03:35:00,
2013-05-21 05:40:00,49.3,46.8,29.94,WSW,248,2.4,0.0,91,0.00,OVC,,0.00,13.2,WeatherDisplay:10.37,2013-05-21 03:40:00,
2013-05-21 05:45:00,49.5,46.9,29.94,SSW,202,0.0,0.0,91,0.00,OVC,,0.00,15.7,WeatherDisplay:10.37,2013-05-21 03:45:00,
2013-05-21 05:50:00,49.6,47.4,29.97,SSW,202,1.2,0.0,92,0.00,OVC,,0.00,18.0,WeatherDisplay:10.37,2013-05-21 03:50:00,
2013-05-21 05:55:00,50.0,47.8,29.97,SSW,202,4.6,4.6,92,0.00,OVC,,0.00,20.5,WeatherDisplay:10.37,2013-05-21 03:55:00,
2013-05-21 06:00:00,50.4,48.1,29.94,South,180,2.3,2.3,92,0.00,OVC,,0.00,22.9,WeatherDisplay:10.37,2013-05-21 04:00:00,
2013-05-21 06:01:00,50.4,48.1,29.94,SSE,158,2.3,2.3,92,0.00,OVC,,0.00,22.9,WeatherDisplay:10.37,2013-05-21 04:01:00,
2013-05-21 06:06:00,50.9,48.7,29.94,SSW,202,2.3,2.3,92,0.00,OVC,,0.00,26.1,WeatherDisplay:10.37,2013-05-21 04:06:00,
2013-05-21 06:11:00,51.3,48.7,29.94,WSW,248,3.5,3.5,91,0.00,OVC,,0.00,28.5,WeatherDisplay:10.37,2013-05-21 04:11:00,
2013-05-21 06:16:00,51.8,49.0,29.94,WNW,292,0.0,0.0,90,0.00,OVC,,0.00,31.0,WeatherDisplay:10.37,2013-05-21 04:16:00,
2013-05-21 06:21:00,52.0,48.8,29.94,SSW,202,2.2,0.0,89,0.00,OVC,,0.00,33.7,WeatherDisplay:10.37,2013-05-21 04:21:00,
2013-05-21 06:26:00,52.3,49.2,29.94,SSW,202,2.3,0.0,89,0.00,OVC,,0.00,36.3,WeatherDisplay:10.37,2013-05-21 04:26:00,
2013-05-21 06:31:00,52.7,49.2,29.91,SSW,202,2.2,2.2,88,0.00,OVC,,0.00,38.9,WeatherDisplay:10.37,2013-05-21 04:31:00,
2013-05-21 06:36:00,52.9,49.1,29.91,SSW,202,3.5,3.5,87,0.00,OVC,,0.00,41.6,WeatherDisplay:10.37,2013-05-21 04:36:00,
2013-05-21 06:41:00,53.1,49.3,29.91,SSE,158,2.3,0.0,87,0.00,OVC,,0.00,44.2,WeatherDisplay:10.37,2013-05-21 04:41:00,
2013-05-21 06:46:00,53.1,49.0,29.91,SW,225,2.3,2.3,86,0.00,OVC,,0.00,47.0,WeatherDisplay:10.37,2013-05-21 04:46:00,
2013-05-21 06:51:00,53.2,49.2,29.91,WSW,248,3.5,3.5,86,0.00,OVC,,0.00,49.7,WeatherDisplay:10.37,2013-05-21 04:51:00,
2013-05-21 06:56:00,53.4,49.0,29.91,SSW,202,3.3,3.3,85,0.00,OVC,,0.00,52.5,WeatherDisplay:10.37,2013-05-21 04:56:00,
2013-05-21 07:01:00,53.4,49.0,29.94,SSW,202,2.3,2.3,85,0.00,OVC,,0.00,55.1,WeatherDisplay:10.37,2013-05-21 05:01:00,
2013-05-21 07:06:00,53.6,48.9,29.94,SSE,158,2.3,2.3,84,0.00,OVC,,0.00,57.9,WeatherDisplay:10.37,2013-05-21 05:06:00,
2013-05-21 07:11:00,53.8,49.1,29.94,South,180,1.4,0.0,84,0.00,OVC,,0.00,60.7,WeatherDisplay:10.37,2013-05-21 05:11:00,
2013-05-21 07:16:00,53.6,48.6,29.94,SSW,202,2.9,2.9,83,0.00,OVC,,0.00,63.5,WeatherDisplay:10.37,2013-05-21 05:16:00,
2013-05-21 07:21:00,53.6,48.6,29.94,WSW,248,2.6,2.6,83,0.00,OVC,,0.00,66.3,WeatherDisplay:10.37,2013-05-21 05:21:00,
2013-05-21 07:26:00,53.6,48.6,29.94,SSE,158,1.4,0.0,83,0.00,OVC,,0.00,69.1,WeatherDisplay:10.37,2013-05-21 05:26:00,
2013-05-21 07:31:00,53.6,48.6,29.91,SSW,202,2.3,2.3,83,0.00,OVC,,0.00,71.9,WeatherDisplay:10.37,2013-05-21 05:31:00,
2013-05-21 07:36:00,53.6,48.6,29.91,WNW,292,0.0,0.0,83,0.00,OVC,,0.00,74.7,WeatherDisplay:10.37,2013-05-21 05:36:00,
2013-05-21 07:41:00,53.8,48.7,29.91,SW,225,3.5,3.5,83,0.00,OVC,,0.00,77.5,WeatherDisplay:10.37,2013-05-21 05:41:00,
2013-05-21 07:46:00,53.6,48.6,29.91,SW,225,3.3,0.0,83,0.00,OVC,,0.00,80.4,WeatherDisplay:10.37,2013-05-21 05:46:00,
2013-05-21 07:51:00,53.8,48.7,29.91,WSW,248,1.2,1.2,83,0.00,OVC,,0.00,83.2,WeatherDisplay:10.37,2013-05-21 05:51:00,
2013-05-21 07:56:00,53.8,48.7,29.91,West,270,1.6,0.0,83,0.00,OVC,,0.00,86.0,WeatherDisplay:10.37,2013-05-21 05:56:00,
2013-05-21 08:01:00,54.0,48.9,29.91,SSW,202,2.4,2.4,83,0.00,OVC,,0.00,88.9,WeatherDisplay:10.37,2013-05-21 06:01:00,
2013-05-21 08:06:00,54.5,49.8,29.91,SSW,202,5.4,5.4,84,0.00,OVC,,0.00,91.7,WeatherDisplay:10.37,2013-05-21 06:06:00,
2013-05-21 08:11:00,55.4,50.0,29.91,SSE,158,3.5,3.5,82,0.00,OVC,,0.00,94.5,WeatherDisplay:10.37,2013-05-21 06:11:00,
2013-05-21 08:16:00,55.9,50.2,29.91,WSW,248,8.1,8.1,81,0.00,OVC,,0.00,97.3,WeatherDisplay:10.37,2013-05-21 06:16:00,
2013-05-21 08:21:00,56.5,50.4,29.91,SSW,202,5.8,5.8,80,0.00,OVC,,0.00,100.2,WeatherDisplay:10.37,2013-05-21 06:21:00,
2013-05-21 08:26:00,56.7,49.9,29.91,WSW,248,5.8,5.8,78,0.00,OVC,,0.00,102.8,WeatherDisplay:10.37,2013-05-21 06:26:00,
2013-05-21 08:31:00,56.8,49.4,29.91,WSW,248,4.6,4.6,76,0.00,OVC,,0.00,105.6,WeatherDisplay:10.37,2013-05-21 06:31:00,
2013-05-21 08:36:00,57.2,49.7,29.97,WSW,248,6.2,6.2,76,0.00,OVC,,0.00,108.4,WeatherDisplay:10.37,2013-05-21 06:36:00,
2013-05-21 08:41:00,57.7,49.5,29.97,WSW,248,5.6,5.6,74,0.00,OVC,,0.00,111.2,WeatherDisplay:10.37,2013-05-21 06:41:00,
2013-05-21 08:46:00,58.3,49.7,29.94,WSW,248,9.2,9.2,73,0.00,OVC,,0.00,113.8,WeatherDisplay:10.37,2013-05-21 06:46:00,
2013-05-21 08:51:00,58.6,49.6,29.94,WSW,248,7.8,7.8,72,0.00,OVC,,0.00,116.7,WeatherDisplay:10.37,2013-05-21 06:51:00,
2013-05-21 08:56:00,59.2,49.4,29.94,WSW,248,6.9,6.9,70,0.00,OVC,,0.00,119.3,WeatherDisplay:10.37,2013-05-21 06:56:00,
2013-05-21 09:01:00,59.7,49.9,29.97,WSW,248,5.8,5.8,70,0.00,OVC,,0.00,121.9,WeatherDisplay:10.37,2013-05-21 07:01:00,
2013-05-21 09:06:00,59.7,49.5,29.97,WSW,248,5.9,5.9,69,0.00,OVC,,0.00,124.6,WeatherDisplay:10.37,2013-05-21 07:06:00,
2013-05-21 09:11:00,60.1,49.9,29.97,WSW,248,5.9,5.9,69,0.00,OVC,,0.00,127.2,WeatherDisplay:10.37,2013-05-21 07:11:00,
2013-05-21 09:16:00,60.4,50.2,29.97,WSW,248,8.1,8.1,69,0.00,OVC,,0.00,129.9,WeatherDisplay:10.37,2013-05-21 07:16:00,
2013-05-21 09:21:00,60.6,49.2,29.97,SW,225,5.8,5.9,66,0.00,OVC,,0.00,132.3,WeatherDisplay:10.37,2013-05-21 07:21:00,
2013-05-21 09:26:00,60.8,50.2,29.97,West,270,5.8,5.8,68,0.00,OVC,,0.00,134.8,WeatherDisplay:10.37,2013-05-21 07:26:00,
2013-05-21 09:31:00,61.0,49.9,29.94,SSW,202,6.2,6.2,67,0.00,OVC,,0.00,137.3,WeatherDisplay:10.37,2013-05-21 07:31:00,
2013-05-21 09:36:00,61.3,50.3,29.94,SSW,202,6.9,6.9,67,0.00,OVC,,0.00,139.8,WeatherDisplay:10.37,2013-05-21 07:36:00,
2013-05-21 09:41:00,61.3,49.9,29.94,WNW,292,8.1,8.1,66,0.00,OVC,,0.00,142.2,WeatherDisplay:10.37,2013-05-21 07:41:00,
2013-05-21 09:46:00,61.3,49.1,29.94,West,270,6.4,6.4,64,0.00,OVC,,0.00,144.5,WeatherDisplay:10.37,2013-05-21 07:46:00,
2013-05-21 09:51:00,61.5,49.6,29.94,SW,225,8.1,8.1,65,0.00,OVC,,0.00,147.0,WeatherDisplay:10.37,2013-05-21 07:51:00,
2013-05-21 09:56:00,61.7,48.1,29.94,SSW,202,8.1,8.1,61,0.00,OVC,,0.00,149.3,WeatherDisplay:10.37,2013-05-21 07:56:00,
2013-05-21 10:01:00,61.9,49.6,29.94,WSW,248,9.2,9.2,64,0.00,OVC,,0.00,151.5,WeatherDisplay:10.37,2013-05-21 08:01:00,
2013-05-21 10:06:00,62.1,49.3,29.94,WSW,248,7.1,7.1,63,0.00,OVC,,0.00,153.8,WeatherDisplay:10.37,2013-05-21 08:06:00,
2013-05-21 10:11:00,62.2,49.1,29.94,NW,315,7.4,7.4,62,0.00,OVC,,0.00,155.9,WeatherDisplay:10.37,2013-05-21 08:11:00,
2013-05-21 10:16:00,62.4,48.8,29.94,SW,225,10.4,10.4,61,0.00,OVC,,0.00,158.1,WeatherDisplay:10.37,2013-05-21 08:16:00,
2013-05-21 10:21:00,62.4,47.9,29.94,WSW,248,10.4,10.4,59,0.00,OVC,,0.00,160.1,WeatherDisplay:10.37,2013-05-21 08:21:00,
2013-05-21 10:26:00,62.6,48.1,29.94,WSW,248,8.1,8.1,59,0.00,OVC,,0.00,162.2,WeatherDisplay:10.37,2013-05-21 08:26:00,
2013-05-21 10:31:00,62.8,48.7,29.97,ESE,112,6.9,6.9,60,0.00,OVC,,0.00,164.2,WeatherDisplay:10.37,2013-05-21 08:31:00,
2013-05-21 10:36:00,63.1,49.9,29.97,WNW,292,8.1,8.1,62,0.00,OVC,,0.00,166.0,WeatherDisplay:10.37,2013-05-21 08:36:00,
2013-05-21 10:41:00,63.5,49.8,29.97,WSW,248,8.1,8.1,61,0.00,OVC,,0.00,168.0,WeatherDisplay:10.37,2013-05-21 08:41:00,
2013-05-21 10:46:00,63.7,50.0,29.94,West,270,5.8,5.8,61,0.00,OVC,,0.00,169.6,WeatherDisplay:10.37,2013-05-21 08:46:00,
2013-05-21 10:51:00,64.0,49.0,29.94,WSW,248,11.5,11.5,58,0.00,OVC,,0.00,171.4,WeatherDisplay:10.37,2013-05-21 08:51:00,
2013-05-21 10:56:00,64.2,48.7,29.94,WSW,248,12.7,12.7,57,0.00,OVC,,0.00,173.1,WeatherDisplay:10.37,2013-05-21 08:56:00,
2013-05-21 11:01:00,64.4,48.4,29.94,WSW,248,10.4,10.4,56,0.00,OVC,,0.00,174.7,WeatherDisplay:10.37,2013-05-21 09:01:00,
2013-05-21 11:06:00,64.6,48.5,29.94,West,270,9.2,9.2,56,0.00,OVC,,0.00,176.4,WeatherDisplay:10.37,2013-05-21 09:06:00,
2013-05-21 11:11:00,65.1,48.5,29.94,WSW,248,10.4,10.4,55,0.00,OVC,,0.00,177.9,WeatherDisplay:10.37,2013-05-21 09:11:00,
2013-05-21 11:16:00,65.3,49.7,29.94,South,180,9.2,9.2,57,0.00,OVC,,0.00,179.4,WeatherDisplay:10.37,2013-05-21 09:16:00,
2013-05-21 11:21:00,65.3,49.7,29.94,South,180,5.8,5.8,57,0.00,OVC,,0.00,180.7,WeatherDisplay:10.37,2013-05-21 09:21:00,
2013-05-21 11:26:00,65.7,48.1,29.94,SSE,158,6.9,6.9,53,0.00,OVC,,0.00,182.0,WeatherDisplay:10.37,2013-05-21 09:26:00,
2013-05-21 11:31:00,65.7,47.5,29.94,WSW,248,6.4,6.4,52,0.00,OVC,,0.00,183.3,WeatherDisplay:10.37,2013-05-21 09:31:00,
2013-05-21 11:36:00,65.8,48.7,29.94,WSW,248,9.2,9.2,54,0.00,OVC,,0.00,184.5,WeatherDisplay:10.37,2013-05-21 09:36:00,
2013-05-21 11:41:00,66.2,47.5,29.94,SSW,202,6.9,6.9,51,0.00,OVC,,0.00,185.6,WeatherDisplay:10.37,2013-05-21 09:41:00,
2013-05-21 11:46:00,66.0,46.8,29.97,SSW,202,11.5,11.5,50,0.00,OVC,,0.00,186.6,WeatherDisplay:10.37,2013-05-21 09:46:00,
2013-05-21 11:51:00,65.8,45.6,29.97,SSW,202,11.5,11.5,48,0.00,OVC,,0.00,187.6,WeatherDisplay:10.37,2013-05-21 09:51:00,
2013-05-21 11:56:00,65.8,45.0,29.97,WSW,248,13.8,13.8,47,0.00,OVC,,0.00,188.6,WeatherDisplay:10.37,2013-05-21 09:56:00,
2013-05-21 12:01:00,66.0,46.3,29.94,WSW,248,13.8,13.8,49,0.00,OVC,,0.00,189.4,WeatherDisplay:10.37,2013-05-21 10:01:00,
2013-05-21 12:06:00,66.0,45.2,29.94,SSW,202,10.4,10.4,47,0.00,OVC,,0.00,190.1,WeatherDisplay:10.37,2013-05-21 10:06:00,
2013-05-21 12:11:00,65.8,46.1,29.94,WSW,248,10.4,10.4,49,0.00,OVC,,0.00,190.9,WeatherDisplay:10.37,2013-05-21 10:11:00,
2013-05-21 12:16:00,65.8,46.1,29.94,WSW,248,9.2,9.2,49,0.00,OVC,,0.00,191.4,WeatherDisplay:10.37,2013-05-21 10:16:00,
2013-05-21 12:21:00,66.0,45.8,29.94,WSW,248,12.7,12.7,48,0.00,OVC,,0.00,192.1,WeatherDisplay:10.37,2013-05-21 10:21:00,
2013-05-21 12:26:00,66.4,46.1,29.94,WSW,248,10.4,10.4,48,0.00,OVC,,0.00,192.6,WeatherDisplay:10.37,2013-05-21 10:26:00,
2013-05-21 12:31:00,66.2,44.8,29.94,WSW,248,8.1,8.1,46,0.00,OVC,,0.00,192.9,WeatherDisplay:10.37,2013-05-21 10:31:00,
2013-05-21 12:36:00,66.2,46.5,29.94,WNW,292,10.0,10.0,49,0.00,OVC,,0.00,193.2,WeatherDisplay:10.37,2013-05-21 10:36:00,
2013-05-21 12:41:00,66.6,47.3,29.94,WSW,248,9.7,9.7,50,0.00,OVC,,0.00,193.5,WeatherDisplay:10.37,2013-05-21 10:41:00,
2013-05-21 12:46:00,66.7,45.3,29.94,SSW,202,9.2,9.2,46,0.00,OVC,,0.00,193.7,WeatherDisplay:10.37,2013-05-21 10:46:00,
2013-05-21 12:51:00,66.6,45.7,29.94,SSW,202,14.3,14.3,47,0.00,OVC,,0.00,193.7,WeatherDisplay:10.37,2013-05-21 10:51:00,
2013-05-21 12:56:00,66.2,45.9,29.94,WNW,292,10.4,10.4,48,0.00,OVC,,0.00,193.9,WeatherDisplay:10.37,2013-05-21 10:56:00,
2013-05-21 13:01:00,66.9,45.5,29.91,SSW,202,12.7,12.7,46,0.00,OVC,,0.00,193.9,WeatherDisplay:10.37,2013-05-21 11:01:00,
2013-05-21 13:06:00,67.1,46.2,29.91,SSW,202,5.8,5.8,47,0.00,OVC,,0.00,193.7,WeatherDisplay:10.37,2013-05-21 11:06:00,
2013-05-21 13:11:00,67.6,47.8,29.91,WSW,248,9.2,9.2,49,0.00,OVC,,0.00,193.5,WeatherDisplay:10.37,2013-05-21 11:11:00,
2013-05-21 13:16:00,68.4,45.6,29.91,WSW,248,6.9,7.4,44,0.00,OVC,,0.00,193.2,WeatherDisplay:10.37,2013-05-21 11:16:00,
2013-05-21 13:21:00,68.2,45.4,29.91,WSW,248,10.4,10.4,44,0.00,OVC,,0.00,192.9,WeatherDisplay:10.37,2013-05-21 11:21:00,
2013-05-21 13:26:00,68.0,46.4,29.91,WSW,248,6.4,6.4,46,0.00,OVC,,0.00,192.6,WeatherDisplay:10.37,2013-05-21 11:26:00,
2013-05-21 13:31:00,68.2,45.4,29.91,WSW,248,10.4,10.4,44,0.00,OVC,,0.00,192.1,WeatherDisplay:10.37,2013-05-21 11:31:00,
2013-05-21 13:36:00,67.8,46.3,29.91,SSW,202,9.2,9.2,46,0.00,OVC,,0.00,191.4,WeatherDisplay:10.37,2013-05-21 11:36:00,
2013-05-21 13:41:00,67.5,46.5,29.91,SW,225,10.4,10.4,47,0.00,OVC,,0.00,190.9,WeatherDisplay:10.37,2013-05-21 11:41:00,
2013-05-21 13:46:00,67.8,46.8,29.88,SW,225,8.1,8.1,47,0.00,OVC,,0.00,190.1,WeatherDisplay:10.37,2013-05-21 11:46:00,
2013-05-21 13:51:00,67.8,45.7,29.88,SSW,202,10.4,10.4,45,0.00,OVC,,0.00,189.4,WeatherDisplay:10.37,2013-05-21 11:51:00,
2013-05-21 13:56:00,68.2,46.6,29.88,SW,225,9.2,9.2,46,0.00,OVC,,0.00,188.6,WeatherDisplay:10.37,2013-05-21 11:56:00,
2013-05-21 14:01:00,68.2,45.4,29.88,WSW,248,15.0,15.0,44,0.00,OVC,,0.00,187.6,WeatherDisplay:10.37,2013-05-21 12:01:00,
2013-05-21 14:06:00,68.4,45.6,29.88,WSW,248,8.1,8.1,44,0.00,OVC,,0.00,186.6,WeatherDisplay:10.37,2013-05-21 12:06:00,
2013-05-21 14:11:00,68.9,46.7,29.88,SSW,202,9.2,9.2,45,0.00,OVC,,0.00,185.6,WeatherDisplay:10.37,2013-05-21 12:11:00,
2013-05-21 14:16:00,69.3,47.0,29.88,NNW,338,4.9,4.9,45,0.00,OVC,,0.00,184.5,WeatherDisplay:10.37,2013-05-21 12:16:00,
2013-05-21 14:21:00,68.4,44.4,29.88,WSW,248,9.2,9.2,42,0.00,OVC,,0.00,183.3,WeatherDisplay:10.37,2013-05-21 12:21:00,
2013-05-21 14:26:00,68.4,46.2,29.88,SSW,202,6.9,6.9,45,0.00,OVC,,0.00,182.2,WeatherDisplay:10.37,2013-05-21 12:26:00,
2013-05-21 14:31:00,69.3,47.0,29.88,WSW,248,8.1,8.1,45,0.00,OVC,,0.00,180.8,WeatherDisplay:10.37,2013-05-21 12:31:00,
2013-05-21 14:36:00,69.8,46.3,29.88,WSW,248,13.8,13.8,43,0.00,OVC,,0.00,179.4,WeatherDisplay:10.37,2013-05-21 12:36:00,
2013-05-21 14:41:00,70.0,45.8,29.88,WSW,248,12.7,12.7,42,0.00,OVC,,0.00,177.9,WeatherDisplay:10.37,2013-05-21 12:41:00,
2013-05-21 14:46:00,68.9,44.2,29.88,WSW,248,9.8,9.8,41,0.00,OVC,,0.00,176.4,WeatherDisplay:10.37,2013-05-21 12:46:00,
2013-05-21 14:51:00,69.3,45.8,29.88,SSW,202,8.1,8.1,43,0.00,OVC,,0.00,174.9,WeatherDisplay:10.37,2013-05-21 12:51:00,
2013-05-21 14:56:00,69.6,46.1,29.88,SSW,202,10.4,10.4,43,0.00,OVC,,0.00,173.3,WeatherDisplay:10.37,2013-05-21 12:56:00,
2013-05-21 15:01:00,70.7,45.8,29.85,WSW,248,10.4,10.4,41,0.00,OVC,,0.00,171.6,WeatherDisplay:10.37,2013-05-21 13:01:00,
2013-05-21 15:06:00,71.2,47.0,29.85,SSW,202,12.3,12.3,42,0.00,OVC,,0.00,169.8,WeatherDisplay:10.37,2013-05-21 13:06:00,
2013-05-21 15:11:00,71.4,45.8,29.85,WSW,248,10.4,10.4,40,0.00,OVC,,0.00,168.0,WeatherDisplay:10.37,2013-05-21 13:11:00,
2013-05-21 15:16:00,70.7,45.8,29.85,WNW,292,9.2,9.2,41,0.00,OVC,,0.00,166.2,WeatherDisplay:10.37,2013-05-21 13:16:00,
2013-05-21 15:21:00,70.7,45.8,29.85,WSW,248,5.8,5.8,41,0.00,OVC,,0.00,164.2,WeatherDisplay:10.37,2013-05-21 13:21:00,
2013-05-21 15:26:00,69.6,42.9,29.85,WSW,248,10.2,10.2,38,0.00,OVC,,0.00,162.2,WeatherDisplay:10.37,2013-05-21 13:26:00,
2013-05-21 15:31:00,70.2,47.2,29.91,SSW,202,5.8,5.8,44,0.00,OVC,,0.00,160.2,WeatherDisplay:10.37,2013-05-21 13:31:00,
2013-05-21 15:36:00,70.0,44.5,29.91,SSW,202,9.2,9.2,40,0.00,OVC,,0.00,158.1,WeatherDisplay:10.37,2013-05-21 13:36:00,
2013-05-21 15:41:00,71.1,46.8,29.91,SW,225,5.8,6.0,42,0.00,OVC,,0.00,156.1,WeatherDisplay:10.37,2013-05-21 13:41:00,
2013-05-21 15:46:00,70.7,46.5,29.91,WSW,248,5.8,5.9,42,0.00,OVC,,0.00,153.8,WeatherDisplay:10.37,2013-05-21 13:46:00,
2013-05-21 15:51:00,70.5,44.4,29.91,WSW,248,8.7,8.7,39,0.00,OVC,,0.00,151.6,WeatherDisplay:10.37,2013-05-21 13:51:00,
2013-05-21 15:56:00,70.7,45.2,29.91,SSW,202,8.1,8.1,40,0.00,OVC,,0.00,149.3,WeatherDisplay:10.37,2013-05-21 13:56:00,
2013-05-21 16:01:00,70.3,45.5,29.91,WSW,248,6.9,6.9,41,0.00,OVC,,0.00,147.2,WeatherDisplay:10.37,2013-05-21 14:01:00,
2013-05-21 16:06:00,69.6,44.2,29.91,WSW,248,6.9,6.9,40,0.00,OVC,,0.00,144.7,WeatherDisplay:10.37,2013-05-21 14:06:00,
2013-05-21 16:11:00,69.4,45.3,29.91,SSW,202,3.5,3.8,42,0.00,OVC,,0.00,142.4,WeatherDisplay:10.37,2013-05-21 14:11:00,
2013-05-21 16:16:00,70.7,45.2,29.88,WNW,292,5.8,5.8,40,0.00,OVC,,0.00,139.9,WeatherDisplay:10.37,2013-05-21 14:16:00,
2013-05-21 16:21:00,70.0,45.2,29.88,SSW,202,7.4,7.4,41,0.00,OVC,,0.00,137.4,WeatherDisplay:10.37,2013-05-21 14:21:00,
2013-05-21 16:26:00,69.4,46.0,29.88,WSW,248,6.9,6.9,43,0.00,OVC,,0.00,135.0,WeatherDisplay:10.37,2013-05-21 14:26:00,
2013-05-21 16:31:00,70.0,43.9,29.88,SSW,202,5.8,5.8,39,0.00,OVC,,0.00,132.5,WeatherDisplay:10.37,2013-05-21 14:31:00,
2013-05-21 16:36:00,70.2,44.0,29.88,SSW,202,11.5,11.5,39,0.00,OVC,,0.00,129.9,WeatherDisplay:10.37,2013-05-21 14:36:00,
2013-05-21 16:41:00,70.5,45.0,29.88,WSW,248,10.4,10.4,40,0.00,OVC,,0.00,127.4,WeatherDisplay:10.37,2013-05-21 14:41:00,
2013-05-21 16:46:00,70.3,44.2,29.88,SSW,202,8.1,8.1,39,0.00,OVC,,0.00,124.7,WeatherDisplay:10.37,2013-05-21 14:46:00,
2013-05-21 16:51:00,69.8,45.0,29.88,SSW,202,8.1,8.1,41,0.00,OVC,,0.00,122.1,WeatherDisplay:10.37,2013-05-21 14:51:00,
2013-05-21 16:56:00,69.4,45.3,29.88,WSW,248,5.8,5.8,42,0.00,OVC,,0.00,119.5,WeatherDisplay:10.37,2013-05-21 14:56:00,
2013-05-21 17:01:00,69.4,44.7,29.88,WSW,248,7.6,7.6,41,0.00,OVC,,0.00,116.8,WeatherDisplay:10.37,2013-05-21 15:01:00,
2013-05-21 17:06:00,69.1,45.0,29.88,WSW,248,6.4,6.4,42,0.00,OVC,,0.00,114.0,WeatherDisplay:10.37,2013-05-21 15:06:00,
2013-05-21 17:11:00,68.5,45.1,29.88,SSW,202,5.8,5.8,43,0.00,OVC,,0.00,111.4,WeatherDisplay:10.37,2013-05-21 15:11:00,
2013-05-21 17:16:00,68.0,44.7,29.85,SW,225,6.4,6.4,43,0.00,OVC,,0.00,108.6,WeatherDisplay:10.37,2013-05-21 15:16:00,
2013-05-21 17:21:00,67.6,44.9,29.85,West,270,4.6,4.6,44,0.00,OVC,,0.00,105.8,WeatherDisplay:10.37,2013-05-21 15:21:00,
2013-05-21 17:26:00,67.5,45.4,29.85,West,270,4.6,4.6,45,0.00,OVC,,0.00,103.1,WeatherDisplay:10.37,2013-05-21 15:26:00,
2013-05-21 17:31:00,67.3,44.6,29.85,SSW,202,5.8,5.8,44,0.00,OVC,,0.00,100.3,WeatherDisplay:10.37,2013-05-21 15:31:00,
2013-05-21 17:36:00,67.6,44.3,29.85,NW,315,3.5,3.5,43,0.00,OVC,,0.00,97.5,WeatherDisplay:10.37,2013-05-21 15:36:00,
2013-05-21 17:41:00,67.8,43.9,29.85,SSW,202,10.7,10.7,42,0.00,OVC,,0.00,94.7,WeatherDisplay:10.37,2013-05-21 15:41:00,
2013-05-21 17:46:00,67.8,45.1,29.85,WSW,248,4.6,4.6,44,0.00,OVC,,0.00,91.9,WeatherDisplay:10.37,2013-05-21 15:46:00,
2013-05-21 17:51:00,67.8,45.1,29.85,WNW,292,5.8,5.8,44,0.00,OVC,,0.00,89.1,WeatherDisplay:10.37,2013-05-21 15:51:00,
2013-05-21 17:56:00,67.8,45.7,29.85,WSW,248,5.8,5.8,45,0.00,OVC,,0.00,86.3,WeatherDisplay:10.37,2013-05-21 15:56:00,
2013-05-21 18:01:00,67.6,45.5,29.85,West,270,4.6,4.6,45,0.00,OVC,,0.00,83.5,WeatherDisplay:10.37,2013-05-21 16:01:00,
2013-05-21 18:06:00,67.3,44.6,29.85,WSW,248,5.8,5.8,44,0.00,OVC,,0.00,80.7,WeatherDisplay:10.37,2013-05-21 16:06:00,
2013-05-21 18:11:00,67.3,44.6,29.85,SSW,202,5.8,5.8,44,0.00,OVC,,0.00,77.7,WeatherDisplay:10.37,2013-05-21 16:11:00,
2013-05-21 18:16:00,67.1,45.0,29.83,West,270,5.8,5.8,45,0.00,OVC,,0.00,74.9,WeatherDisplay:10.37,2013-05-21 16:16:00,
2013-05-21 18:21:00,66.9,44.3,29.83,SSW,202,6.4,6.4,44,0.00,OVC,,0.00,72.1,WeatherDisplay:10.37,2013-05-21 16:21:00,
2013-05-21 18:26:00,66.9,44.9,29.83,WNW,292,3.5,3.5,45,0.00,OVC,,0.00,69.3,WeatherDisplay:10.37,2013-05-21 16:26:00,
2013-05-21 18:31:00,66.9,44.3,29.83,WSW,248,4.6,4.6,44,0.00,OVC,,0.00,66.5,WeatherDisplay:10.37,2013-05-21 16:31:00,
2013-05-21 18:36:00,66.7,45.3,29.83,WNW,292,3.5,3.5,46,0.00,OVC,,0.00,63.7,WeatherDisplay:10.37,2013-05-21 16:36:00,
2013-05-21 18:41:00,66.7,44.7,29.83,WSW,248,3.5,3.5,45,0.00,OVC,,0.00,60.9,WeatherDisplay:10.37,2013-05-21 16:41:00,
2013-05-21 18:46:00,66.7,44.1,29.83,WSW,248,5.8,5.8,44,0.00,OVC,,0.00,58.2,WeatherDisplay:10.37,2013-05-21 16:46:00,
2013-05-21 18:51:00,66.6,43.4,29.83,SSW,202,6.0,6.0,43,0.00,OVC,,0.00,55.4,WeatherDisplay:10.37,2013-05-21 16:51:00,
2013-05-21 18:56:00,66.6,43.4,29.83,WNW,292,5.8,5.8,43,0.00,OVC,,0.00,52.6,WeatherDisplay:10.37,2013-05-21 16:56:00,
2013-05-21 19:01:00,66.4,43.2,29.88,SSW,202,5.8,5.8,43,0.00,OVC,,0.00,50.0,WeatherDisplay:10.37,2013-05-21 17:01:00,
2013-05-21 19:06:00,66.4,43.8,29.88,WSW,248,4.6,4.6,44,0.00,OVC,,0.00,47.2,WeatherDisplay:10.37,2013-05-21 17:06:00,
2013-05-21 19:11:00,66.2,43.0,29.88,WSW,248,5.8,5.8,43,0.00,OVC,,0.00,44.5,WeatherDisplay:10.37,2013-05-21 17:11:00,
2013-05-21 19:16:00,66.2,43.6,29.88,WSW,248,4.6,4.6,44,0.00,OVC,,0.00,41.9,WeatherDisplay:10.37,2013-05-21 17:16:00,
2013-05-21 19:21:00,66.0,43.5,29.88,WSW,248,2.3,2.3,44,0.00,OVC,,0.00,39.3,WeatherDisplay:10.37,2013-05-21 17:21:00,
2013-05-21 19:26:00,66.0,44.1,29.88,WNW,292,2.9,0.0,45,0.00,OVC,,0.00,36.6,WeatherDisplay:10.37,2013-05-21 17:26:00,
2013-05-21 19:31:00,65.8,43.9,29.85,WSW,248,2.3,2.3,45,0.00,OVC,,0.00,34.0,WeatherDisplay:10.37,2013-05-21 17:31:00,
2013-05-21 19:36:00,65.7,44.3,29.85,WSW,248,2.3,2.3,46,0.00,OVC,,0.00,31.4,WeatherDisplay:10.37,2013-05-21 17:36:00,
2013-05-21 19:41:00,65.5,44.1,29.85,SSW,202,1.2,2.0,46,0.00,OVC,,0.00,28.9,WeatherDisplay:10.37,2013-05-21 17:41:00,
2013-05-21 19:46:00,65.3,44.0,29.85,SSW,202,5.4,5.4,46,0.00,OVC,,0.00,26.2,WeatherDisplay:10.37,2013-05-21 17:46:00,
2013-05-21 19:51:00,65.1,44.4,29.85,West,270,5.9,5.9,47,0.00,OVC,,0.00,23.8,WeatherDisplay:10.37,2013-05-21 17:51:00,
2013-05-21 19:56:00,64.9,43.1,29.85,WSW,248,4.6,4.6,45,0.00,OVC,,0.00,21.3,WeatherDisplay:10.37,2013-05-21 17:56:00,
2013-05-21 20:01:00,64.9,43.7,29.88,SSW,202,4.6,4.6,46,0.00,OVC,,0.00,18.8,WeatherDisplay:10.37,2013-05-21 18:01:00,
2013-05-21 20:06:00,64.6,43.3,29.88,SSW,202,7.6,7.6,46,0.00,OVC,,0.00,16.5,WeatherDisplay:10.37,2013-05-21 18:06:00,
2013-05-21 20:11:00,64.4,42.6,29.88,SSW,202,5.8,5.8,45,0.00,OVC,,0.00,14.0,WeatherDisplay:10.37,2013-05-21 18:11:00,
2013-05-21 20:16:00,64.2,43.6,29.88,South,180,4.6,4.6,47,0.00,OVC,,0.00,11.7,WeatherDisplay:10.37,2013-05-21 18:16:00,
2013-05-21 20:21:00,64.0,43.4,29.88,SSW,202,5.8,5.8,47,0.00,OVC,,0.00,9.4,WeatherDisplay:10.37,2013-05-21 18:21:00,
2013-05-21 20:26:00,63.9,43.2,29.88,WSW,248,5.8,5.8,47,0.00,OVC,,0.00,7.1,WeatherDisplay:10.37,2013-05-21 18:26:00,
2013-05-21 20:31:00,63.7,43.6,29.88,SSW,202,4.6,4.6,48,0.00,OVC,,0.00,4.8,WeatherDisplay:10.37,2013-05-21 18:31:00,
2013-05-21 20:36:00,63.5,43.4,29.88,WSW,248,3.3,3.3,48,0.00,OVC,,0.00,2.6,WeatherDisplay:10.37,2013-05-21 18:36:00,
2013-05-21 20:41:00,63.3,43.3,29.85,West,270,4.6,4.6,48,0.00,OVC,,0.00,0.8,WeatherDisplay:10.37,2013-05-21 18:41:00,
2013-05-21 20:46:00,63.0,43.5,29.88,WSW,248,3.5,3.5,49,0.00,OVC,,0.00,0.8,WeatherDisplay:10.37,2013-05-21 18:46:00,
2013-05-21 20:51:00,62.8,43.3,29.88,SSW,202,4.6,4.6,49,0.00,CLR,,0.00,0.0,WeatherDisplay:10.37,2013-05-21 18:51:00,
2013-05-21 20:56:00,62.4,44.0,29.88,SSW,202,1.2,1.2,51,0.00,CLR,,0.00,0.0,WeatherDisplay:10.37,2013-05-21 18:56:00,
2013-05-21 21:01:00,62.1,43.2,29.88,WSW,248,0.0,0.0,50,0.00,CLR,,0.00,0.0,WeatherDisplay:10.37,2013-05-21 19:01:00,
2013-05-21 21:06:00,61.7,43.4,29.83,SSW,202,0.0,0.0,51,0.00,CLR,,0.00,0.0,WeatherDisplay:10.37,2013-05-21 19:06:00,
2013-05-21 21:11:00,61.3,43.0,29.83,SSW,202,1.2,0.0,51,0.00,CLR,,0.00,0.0,WeatherDisplay:10.37,2013-05-21 19:11:00,
2013-05-21 21:16:00,61.0,42.7,29.83,SSW,202,0.0,0.0,51,0.00,CLR,,0.00,0.0,WeatherDisplay:10.37,2013-05-21 19:16:00,
2013-05-21 21:21:00,60.6,42.9,29.83,SSW,202,1.2,0.0,52,0.00,CLR,,0.00,0.0,WeatherDisplay:10.37,2013-05-21 19:21:00,
2013-05-21 21:26:00,60.3,43.1,29.83,SSW,202,0.0,0.0,53,0.00,CLR,,0.00,0.0,WeatherDisplay:10.37,2013-05-21 19:26:00,
2013-05-21 21:31:00,59.9,42.7,29.83,SSW,202,0.0,0.0,53,0.00,CLR,,0.00,0.0,WeatherDisplay:10.37,2013-05-21 19:31:00,
2013-05-21 21:36:00,59.5,42.9,29.83,WSW,248,0.0,0.0,54,0.00,CLR,,0.00,0.0,WeatherDisplay:10.37,2013-05-21 19:36:00,
2013-05-21 21:41:00,59.2,43.0,29.83,WSW,248,0.0,0.0,55,0.00,CLR,,0.00,0.0,WeatherDisplay:10.37,2013-05-21 19:41:00,
2013-05-21 21:46:00,58.8,43.1,29.83,WSW,248,0.0,0.0,56,0.00,CLR,,0.00,0.0,WeatherDisplay:10.37,2013-05-21 19:46:00,
2013-05-21 21:51:00,58.6,43.4,29.83,WSW,248,0.0,0.0,57,0.00,CLR,,0.00,0.0,WeatherDisplay:10.37,2013-05-21 19:51:00,
2013-05-21 21:56:00,58.5,43.3,29.83,WSW,248,0.0,0.0,57,0.00,CLR,,0.00,0.0,WeatherDisplay:10.37,2013-05-21 19:56:00,
2013-05-21 22:01:00,58.1,43.4,29.83,SW,225,0.0,0.0,58,0.00,CLR,,0.00,0.0,WeatherDisplay:10.37,2013-05-21 20:01:00,
2013-05-21 22:06:00,57.9,43.7,29.83,SW,225,0.0,0.0,59,0.00,CLR,,0.00,0.0,WeatherDisplay:10.37,2013-05-21 20:06:00,
2013-05-21 22:11:00,57.6,43.3,29.83,SW,225,0.0,0.0,59,0.00,CLR,,0.00,0.0,WeatherDisplay:10.37,2013-05-21 20:11:00,
2013-05-21 22:16:00,57.4,44.0,29.83,SSW,202,0.0,0.0,61,0.00,CLR,,0.00,0.0,WeatherDisplay:10.37,2013-05-21 20:16:00,
2013-05-21 22:21:00,57.2,44.3,29.83,SSW,202,0.0,0.0,62,0.00,CLR,,0.00,0.0,WeatherDisplay:10.37,2013-05-21 20:21:00,
2013-05-21 22:26:00,56.8,44.4,29.83,SW,225,0.0,0.0,63,0.00,CLR,,0.00,0.0,WeatherDisplay:10.37,2013-05-21 20:26:00,
2013-05-21 22:31:00,56.7,44.6,29.80,SW,225,0.0,0.0,64,0.00,CLR,,0.00,0.0,WeatherDisplay:10.37,2013-05-21 20:31:00,
2013-05-21 22:36:00,56.5,44.4,29.80,WSW,248,0.0,0.0,64,0.00,CLR,,0.00,0.0,WeatherDisplay:10.37,2013-05-21 20:36:00,
2013-05-21 22:41:00,56.3,44.3,29.80,SW,225,2.3,0.0,64,0.00,CLR,,0.00,0.0,WeatherDisplay:10.37,2013-05-21 20:41:00,
2013-05-21 22:46:00,56.1,44.5,29.83,WSW,248,0.0,0.0,65,0.00,CLR,,0.00,0.0,WeatherDisplay:10.37,2013-05-21 20:46:00,
2013-05-21 22:51:00,55.9,44.3,29.83,SSW,202,0.0,0.0,65,0.00,CLR,,0.00,0.0,WeatherDisplay:10.37,2013-05-21 20:51:00,
2013-05-21 22:56:00,55.9,44.3,29.83,SSW,202,0.0,0.0,65,0.00,CLR,,0.00,0.0,WeatherDisplay:10.37,2013-05-21 20:56:00,
2013-05-21 23:01:00,55.8,44.6,29.80,SSW,202,0.0,0.0,66,0.00,CLR,,0.00,0.0,WeatherDisplay:10.37,2013-05-21 21:01:00,
2013-05-21 23:06:00,55.6,44.8,29.80,SSW,202,0.0,0.0,67,0.00,CLR,,0.00,0.0,WeatherDisplay:10.37,2013-05-21 21:06:00,
2013-05-21 23:11:00,55.4,44.6,29.80,SW,225,0.0,0.0,67,0.00,CLR,,0.00,0.0,WeatherDisplay:10.37,2013-05-21 21:11:00,
2013-05-21 23:16:00,55.2,44.8,29.80,WNW,292,0.0,0.0,68,0.00,CLR,,0.00,0.0,WeatherDisplay:10.37,2013-05-21 21:16:00,
2013-05-21 23:21:00,54.9,44.5,29.80,WNW,292,0.0,0.0,68,0.00,CLR,,0.00,0.0,WeatherDisplay:10.37,2013-05-21 21:21:00,
2013-05-21 23:26:00,54.7,44.3,29.80,WNW,292,0.0,0.0,68,0.00,CLR,,0.00,0.0,WeatherDisplay:10.37,2013-05-21 21:26:00,
2013-05-21 23:31:00,54.3,44.4,29.80,WNW,292,0.0,0.0,69,0.00,CLR,,0.00,0.0,WeatherDisplay:10.37,2013-05-21 21:31:00,
2013-05-21 23:36:00,54.1,44.6,29.80,West,270,0.0,0.0,70,0.00,CLR,,0.00,0.0,WeatherDisplay:10.37,2013-05-21 21:36:00,
2013-05-21 23:41:00,54.0,44.4,29.80,West,270,0.0,0.0,70,0.00,CLR,,0.00,0.0,WeatherDisplay:10.37,2013-05-21 21:41:00,
2013-05-21 23:46:00,53.8,44.6,29.80,West,270,0.0,0.0,71,0.00,CLR,,0.00,0.0,WeatherDisplay:10.37,2013-05-21 21:46:00,
2013-05-21 23:51:00,53.6,44.4,29.80,West,270,0.0,0.0,71,0.00,CLR,,0.00,0.0,WeatherDisplay:10.37,2013-05-21 21:51:00,
2013-05-21 23:56:00,53.4,44.6,29.80,West,270,0.0,0.0,72,0.00,CLR,,0.00,0.0,WeatherDisplay:10.37,2013-05-21 21:56:00,